EW5026 Weather Reports


Display with metric or nautical units.
time (UTC)temp
F
wind
direction
speed
MPH
gust
MPH
rain 1hr
in
rain 24hr
in
rain mn
in
humidity
%
barometer
mb
20260505171017 55 284 5.0 8.0 0.00 0.64 0.01 63 1008.0
20260505170517 55 281 2.0 9.0 0.00 0.64 0.01 65 1008.0
20260505170018 54 271 3.0 9.0 0.00 0.64 0.01 67 1008.1
20260505165516 55 296 3.0 9.0 0.00 0.64 0.01 64 1008.0
20260505165019 55 327 3.0 8.0 0.00 0.64 0.01 67 1007.9
20260505164516 55 349 3.0 8.0 0.00 0.64 0.01 72 1008.0
20260505164016 55 316 3.0 11.0 0.00 0.64 0.01 68 1008.0
20260505163516 55 323 4.0 11.0 0.00 0.64 0.01 69 1008.0
20260505163019 54 360 1.0 4.0 0.00 0.64 0.01 69 1008.0
20260505162515 54 360 1.0 9.0 0.00 0.64 0.01 70 1008.0
20260505162015 54 306 3.0 9.0 0.00 0.64 0.01 72 1008.1
20260505161518 53 280 2.0 5.0 0.00 0.64 0.01 72 1008.0
20260505161015 53 325 3.0 5.0 0.00 0.64 0.01 72 1008.0
20260505160517 53 337 2.0 5.0 0.00 0.64 0.01 74 1008.0
20260505153014 51 355 3.0 6.0 0.00 0.64 0.01 76 1007.7
20260505152514 51 294 3.0 8.0 0.00 0.64 0.01 79 1008.0
20260505152016 50 360 3.0 8.0 0.00 0.64 0.01 80 1007.9
20260505151513 49 348 4.0 7.0 0.00 0.64 0.01 82 1007.8
20260505151013 48 10 4.0 8.0 0.00 0.64 0.01 81 1007.9
20260505150520 48 347 5.0 8.0 0.00 0.64 0.01 82 1008.0
20260505140509 47 315 7.0 11.0 0.00 0.63 0.00 81 1007.8
20260505124557 51 312 6.0 11.0 0.00 0.63 0.00 69 1007.3
20260505124053 51 322 6.0 11.0 0.00 0.63 0.00 71 1007.2
20260505123551 51 331 7.0 11.0 0.00 0.63 0.00 71 1006.9
20260505123054 51 340 6.0 11.0 0.00 0.63 0.00 72 1006.9
20260505122551 51 329 6.0 10.0 0.00 0.63 0.00 73 1006.5
20260505122049 51 322 6.0 10.0 0.00 0.63 0.00 74 1006.2
20260505121549 51 311 7.0 12.0 0.00 0.63 0.00 74 1006.4
20260505121049 51 320 7.0 12.0 0.00 0.63 0.00 73 1006.3
20260505120549 51 300 7.0 14.0 0.00 0.63 0.00 73 1006.4
20260505120053 51 311 7.0 14.0 0.00 0.63 0.00 72 1006.4
20260505115547 51 307 9.0 13.0 0.00 0.63 0.00 73 1006.4
20260505115048 51 311 6.0 11.0 0.00 0.63 0.00 75 1006.3
20260505114553 51 307 7.0 10.0 0.00 0.63 0.00 75 1006.0
20260505114044 51 322 6.0 10.0 0.00 0.63 0.00 75 1005.7
20260505113546 51 312 6.0 10.0 0.00 0.63 0.00 74 1005.6
20260505113043 51 303 5.0 9.0 0.00 0.63 0.00 72 1005.2
20260505112541 52 303 4.0 9.0 0.00 0.63 0.00 72 1005.2
20260505112042 52 296 5.0 10.0 0.00 0.63 0.00 71 1005.3
20260505111541 52 302 5.0 10.0 0.00 0.63 0.00 72 1005.1
20260505111039 52 313 5.0 10.0 0.00 0.63 0.00 73 1004.9
20260505110539 52 275 6.0 9.0 0.00 0.63 0.00 69 1004.9
20260505102030 53 275 4.0 8.0 0.00 0.63 0.00 68 1004.9
20260505101541 53 275 4.0 8.0 0.00 0.63 0.00 69 1005.0
20260505101029 54 284 3.0 8.0 0.00 0.63 0.00 66 1004.9
20260505100528 53 284 2.0 5.0 0.00 0.63 0.00 65 1004.7
20260505100028 53 313 3.0 5.0 0.00 0.63 0.00 66 1004.9
20260505095527 53 285 2.0 6.0 0.00 0.63 0.00 69 1004.8
20260505095029 54 267 3.0 7.0 0.00 0.63 0.00 68 1004.8
20260505094535 54 270 4.0 7.0 0.00 0.63 0.00 69 1004.9
20260505094025 54 263 3.0 6.0 0.00 0.63 0.00 68 1004.9
20260505093524 54 269 2.0 6.0 0.00 0.63 0.00 69 1004.8
20260505093024 55 244 1.0 7.0 0.00 0.63 0.00 68 1004.8
20260505092526 55 256 3.0 9.0 0.00 0.63 0.00 66 1004.8
20260505092023 55 270 4.0 9.0 0.00 0.63 0.00 67 1004.7
20260505091522 55 267 4.0 8.0 0.00 0.63 0.00 68 1004.4
20260505091020 55 276 3.0 7.0 0.00 0.63 0.00 67 1004.3
20260505090520 55 259 3.0 8.0 0.00 0.63 0.00 63 1004.4
20260505090022 56 277 4.0 8.0 0.00 0.63 0.00 61 1004.4
20260505085522 55 275 4.0 8.0 0.00 0.63 0.00 61 1004.2
20260505085021 56 297 4.0 7.0 0.00 0.63 0.00 64 1004.2
20260505084517 56 268 4.0 7.0 0.00 0.63 0.00 61 1004.0
20260505084016 56 261 4.0 6.0 0.00 0.63 0.00 60 1003.8
20260505083515 56 273 3.0 6.0 0.00 0.63 0.00 60 1003.5
20260505083020 56 274 2.0 7.0 0.00 0.63 0.00 62 1003.6
20260505082518 56 260 4.0 7.0 0.00 0.63 0.00 61 1003.5
20260505082017 55 252 2.0 5.0 0.00 0.63 0.00 67 1003.5
20260505081512 56 259 2.0 6.0 0.00 0.63 0.00 63 1003.3
20260505081016 57 256 3.0 6.0 0.00 0.63 0.00 56 1003.1
20260505080510 57 262 3.0 6.0 0.00 0.63 0.00 57 1003.0
20260505080010 57 294 3.0 6.0 0.00 0.63 0.00 59 1003.0
20260505075511 57 287 3.0 6.0 0.00 0.63 0.00 59 1002.9
20260505075016 56 277 3.0 5.0 0.00 0.63 0.00 64 1002.9
20260505074507 56 271 3.0 5.0 0.00 0.63 0.00 64 1002.9
20260505074007 55 261 2.0 4.0 0.00 0.63 0.00 69 1003.0
20260505073508 55 261 1.0 3.0 0.00 0.63 0.00 68 1002.8
20260505073005 55 243 0.0 3.0 0.00 0.63 0.00 72 1002.5
20260505072503 55 250 2.0 4.0 0.00 0.63 0.00 71 1002.5
20260505072002 56 271 2.0 4.0 0.00 0.63 0.00 68 1002.4
20260505071605 56 298 1.0 2.0 0.00 0.63 0.00 67 1002.2
20260505071101 56 298 1.0 3.0 0.00 0.63 0.00 66 1001.9
20260505070600 56 298 1.0 3.0 0.00 0.63 0.00 70 1001.8
20260505070104 56 298 1.0 2.0 0.00 0.63 0.00 70 1002.0
20260505065601 56 298 1.0 2.0 0.00 0.63 0.00 69 1001.9
20260505065056 56 298 0.0 2.0 0.00 0.63 0.00 68 1001.8
20260505064556 56 298 0.0 5.0 0.00 0.63 0.00 67 1001.8
20260505064055 56 303 2.0 5.0 0.00 0.63 0.00 67 1001.7
20260505063554 56 333 1.0 3.0 0.00 0.63 0.00 72 1001.6
20260505063053 57 333 1.0 5.0 0.00 0.63 0.00 72 1001.5
20260505062551 57 333 2.0 6.0 0.00 0.63 0.00 72 1001.2
20260505062056 58 322 4.0 7.0 0.00 0.63 0.00 72 1001.1
20260505061549 58 323 4.0 8.0 0.00 0.63 0.00 72 1001.2
20260505061047 58 344 4.0 10.0 0.00 0.63 0.00 73 1000.8
20260505060547 58 325 6.0 10.0 0.00 0.63 0.00 74 1000.8
20260505060050 58 322 5.0 8.0 0.00 0.63 0.00 77 1000.7
20260505055548 58 331 4.0 5.0 0.00 0.63 0.00 80 1000.9
20260505055044 58 316 3.0 5.0 0.00 0.63 0.00 81 1000.9
20260505054546 58 313 2.0 4.0 0.00 0.63 0.00 82 1000.8
20260505054042 59 324 2.0 3.0 0.00 0.63 0.00 82 1000.8
20260505053540 59 302 1.0 5.0 0.00 0.63 0.00 80 1000.7
20260505053041 60 302 2.0 6.0 0.00 0.63 0.00 79 1000.6
20260505052539 60 267 3.0 7.0 0.00 0.63 0.00 78 1000.7
20260505052038 60 284 3.0 8.0 0.00 0.63 0.00 77 1000.9
20260505051555 60 273 3.0 8.0 0.00 0.63 0.00 77 1000.9
20260505051040 60 269 3.0 7.0 0.00 0.63 0.00 78 1000.9
20260505050535 60 268 3.0 7.0 0.00 0.63 0.00 79 1000.8
20260505041534 60 225 6.0 9.0 0.00 0.63 0.63 76 1000.3
20260505041032 61 244 4.0 10.0 0.01 0.63 0.63 76 1000.2
20260505040533 61 320 5.0 10.0 0.01 0.63 0.63 77 1000.2
20260505040036 61 296 5.0 8.0 0.01 0.63 0.63 76 1000.1
20260505035533 61 328 5.0 8.0 0.01 0.63 0.63 76 1000.2
20260505035032 61 292 5.0 13.0 0.01 0.63 0.63 77 1000.0
20260505034532 62 264 5.0 16.0 0.01 0.63 0.63 75 1000.0
20260505034032 61 243 9.0 17.0 0.01 0.63 0.63 76 999.9
20260505033532 61 223 10.0 17.0 0.01 0.63 0.63 78 999.7
20260505033032 61 209 9.0 19.0 0.01 0.63 0.63 77 999.8
20260505032531 61 242 9.0 19.0 0.01 0.63 0.63 78 1000.2
20260505032030 60 238 10.0 16.0 0.02 0.63 0.63 81 1000.2
20260505031532 60 185 10.0 16.0 0.02 0.62 0.62 82 1000.1
20260505031030 60 236 10.0 17.0 0.09 0.62 0.62 83 1000.3
20260505030530 59 217 11.0 17.0 0.35 0.62 0.62 84 1000.3
20260505030031 58 207 8.0 11.0 0.39 0.62 0.62 87 1000.4
20260505025531 57 209 7.0 9.0 0.40 0.62 0.62 88 1000.6
20260505025031 57 208 5.0 9.0 0.42 0.62 0.62 88 1000.0
20260505024532 57 158 6.0 12.0 0.42 0.62 0.62 88 999.4
20260505024030 57 142 6.0 14.0 0.43 0.62 0.62 88 999.5
20260505023533 57 163 9.0 17.0 0.43 0.62 0.62 88 999.6
20260505023030 58 174 12.0 17.0 0.44 0.62 0.62 87 1000.2
20260505022529 58 186 9.0 15.0 0.45 0.62 0.62 87 1000.0
20260505022031 58 123 6.0 30.0 0.47 0.61 0.61 87 999.4
20260505021531 59 215 15.0 30.0 0.46 0.59 0.59 87 1000.7
20260505021029 59 211 19.0 24.0 0.40 0.52 0.52 86 1000.5
20260505020528 59 271 4.0 8.0 0.23 0.27 0.27 85 1000.4
20260505020028 59 229 0.0 3.0 0.23 0.23 0.23 86 1000.4
20260505015528 59 229 0.0 3.0 0.22 0.22 0.22 84 1000.5
20260505015029 59 229 0.0 6.0 0.20 0.20 0.20 84 1000.4
20260505014528 59 355 1.0 8.0 0.20 0.20 0.20 85 1000.2
20260505014029 59 342 4.0 8.0 0.19 0.19 0.19 84 1000.1
20260505013528 59 323 5.0 14.0 0.19 0.19 0.19 84 1000.2
20260505013027 59 316 7.0 19.0 0.18 0.18 0.18 84 1000.1
20260505012526 59 240 9.0 19.0 0.16 0.16 0.16 84 1000.6
20260505012026 59 306 11.0 17.0 0.14 0.14 0.14 82 1000.2
20260505011527 59 329 10.0 24.0 0.13 0.13 0.13 81 1000.5
20260505011025 60 309 12.0 43.0 0.10 0.10 0.10 78 1000.5
20260505010526 64 289 17.0 43.0 0.03 0.03 0.03 66 1000.9
20260505010026 70 265 17.0 26.0 0.00 0.00 0.00 53 1000.5
20260505005529 71 284 3.0 16.0 0.00 0.00 0.00 56 999.1
20260505005026 72 240 8.0 19.0 0.00 0.00 0.00 54 999.0
20260505004527 73 259 10.0 23.0 0.00 0.00 0.00 55 998.7
20260505004026 74 216 11.0 23.0 0.00 0.00 0.00 55 998.5
20260505003528 74 238 14.0 23.0 0.00 0.00 0.00 54 998.3
20260505003025 74 198 11.0 21.0 0.00 0.00 0.00 54 997.9
20260505002524 74 218 14.0 25.0 0.00 0.00 0.00 54 997.7
20260505002026 74 212 16.0 25.0 0.00 0.00 0.00 54 997.5
20260505001524 74 210 14.0 24.0 0.00 0.00 0.00 54 997.4
20260505001023 74 197 15.0 26.0 0.00 0.00 0.00 53 997.2
20260505000526 74 208 16.0 26.0 0.00 0.00 0.00 53 997.1
20260505000026 74 202 18.0 24.0 0.00 0.00 0.00 52 997.0
20260504235524 74 210 15.0 23.0 0.00 0.00 0.00 52 997.1
20260504235024 74 200 16.0 23.0 0.00 0.00 0.00 52 997.3
20260504234524 75 228 13.0 26.0 0.00 0.00 0.00 52 997.3
20260504234026 75 217 18.0 26.0 0.00 0.00 0.00 50 997.0
20260504233523 75 213 16.0 26.0 0.00 0.00 0.00 50 996.8
20260504233023 75 208 20.0 26.0 0.00 0.00 0.00 49 996.9
20260504232525 76 212 16.0 28.0 0.00 0.00 0.00 49 997.0
20260504232022 76 203 20.0 28.0 0.00 0.00 0.00 48 996.9
20260504231522 76 209 19.0 30.0 0.00 0.00 0.00 49 996.9
20260504231022 76 217 17.0 30.0 0.00 0.00 0.00 49 997.1
20260504230522 76 225 18.0 28.0 0.00 0.00 0.00 48 996.9
20260504230021 76 230 20.0 31.0 0.00 0.00 0.00 48 996.9
20260504225521 76 197 20.0 32.0 0.00 0.00 0.00 47 997.1
20260504225020 76 211 19.0 31.0 0.00 0.00 0.00 47 997.2
20260504224521 77 194 23.0 31.0 0.00 0.00 0.00 46 997.1
20260504224020 78 193 18.0 31.0 0.00 0.00 0.00 46 997.2
20260504223519 78 209 21.0 35.0 0.00 0.00 0.00 46 997.2
20260504223019 78 186 17.0 35.0 0.00 0.00 0.00 46 997.4
20260504222520 78 217 20.0 32.0 0.00 0.00 0.00 45 997.3
20260504222021 78 204 19.0 31.0 0.00 0.00 0.00 45 997.3
20260504221517 78 197 22.0 31.0 0.00 0.00 0.00 45 997.4
20260504221018 78 196 20.0 33.0 0.00 0.00 0.00 46 997.3
20260504220518 78 197 23.0 32.0 0.00 0.00 0.00 45 997.4
20260504220025 79 223 22.0 28.0 0.00 0.00 0.00 44 997.4
20260504215516 79 204 18.0 28.0 0.00 0.00 0.00 44 997.7
20260504215015 79 227 19.0 28.0 0.00 0.00 0.00 43 997.7
20260504214520 79 221 21.0 32.0 0.00 0.00 0.00 43 997.8
20260504214018 79 233 22.0 32.0 0.00 0.00 0.00 44 997.8
20260504213514 79 169 21.0 29.0 0.00 0.00 0.00 44 997.9
20260504213013 80 203 20.0 28.0 0.00 0.00 0.00 44 997.9
20260504212512 80 149 19.0 28.0 0.00 0.00 0.00 43 998.1
20260504212011 80 218 20.0 30.0 0.00 0.00 0.00 45 997.9
20260504211523 79 205 24.0 30.0 0.00 0.00 0.00 44 998.2
20260504211010 80 185 17.0 30.0 0.00 0.00 0.00 46 998.3
20260504210510 80 227 21.0 30.0 0.00 0.00 0.00 45 998.3
20260504210010 80 211 22.0 28.0 0.00 0.00 0.00 46 998.4
20260504205511 80 212 18.0 31.0 0.00 0.00 0.00 46 998.4
20260504205008 79 196 20.0 32.0 0.00 0.00 0.00 45 998.6
20260504204515 79 210 23.0 32.0 0.00 0.00 0.00 45 998.7
20260504204008 79 213 22.0 27.0 0.00 0.00 0.00 46 998.7
20260504203510 79 215 18.0 31.0 0.00 0.00 0.00 46 998.6
20260504203010 79 199 21.0 31.0 0.00 0.00 0.00 46 998.7
20260504202507 79 213 22.0 30.0 0.00 0.00 0.00 44 998.7
20260504202006 79 214 22.0 30.0 0.00 0.00 0.00 46 998.8
20260504201506 79 204 20.0 29.0 0.00 0.00 0.00 47 998.8
20260504201006 79 209 20.0 27.0 0.00 0.00 0.00 46 999.1
20260504200506 79 202 21.0 27.0 0.00 0.00 0.00 45 998.9
20260504200006 80 216 17.0 28.0 0.00 0.00 0.00 45 998.8
20260504195505 80 199 20.0 28.0 0.00 0.00 0.00 44 998.8
20260504195005 80 187 19.0 28.0 0.00 0.00 0.00 42 998.9
20260504194506 80 219 17.0 26.0 0.00 0.00 0.00 42 999.0
20260504194005 79 193 19.0 28.0 0.00 0.00 0.00 44 998.9
20260504193505 79 203 17.0 27.0 0.00 0.00 0.00 44 998.8
20260504193004 80 188 19.0 30.0 0.00 0.00 0.00 44 998.8
20260504192503 80 203 19.0 33.0 0.00 0.00 0.00 43 998.9
20260504192002 80 202 18.0 33.0 0.00 0.00 0.00 41 999.0
20260504191502 80 224 18.0 29.0 0.00 0.00 0.00 40 999.0
20260504191002 80 225 19.0 27.0 0.00 0.00 0.00 41 999.1
20260504190501 80 213 17.0 25.0 0.00 0.00 0.00 39 999.1
20260504190001 80 200 16.0 27.0 0.00 0.00 0.00 35 999.2
20260504185600 80 209 18.0 27.0 0.00 0.00 0.00 40 999.3
20260504185059 80 203 17.0 30.0 0.00 0.00 0.00 41 999.2
20260504184626 80 228 18.0 30.0 0.00 0.00 0.00 41 999.3
20260504184059 80 217 17.0 26.0 0.00 0.00 0.00 43 999.3
20260504183558 80 180 19.0 30.0 0.00 0.00 0.00 41 999.2
20260504183058 80 209 17.0 30.0 0.00 0.00 0.00 42 999.4
20260504182557 79 215 20.0 25.0 0.00 0.00 0.00 42 999.3
20260504182056 79 219 16.0 22.0 0.00 0.00 0.00 42 999.5
20260504181558 79 228 17.0 22.0 0.00 0.00 0.00 42 999.5
20260504181056 80 211 13.0 25.0 0.00 0.00 0.00 41 999.5
20260504180557 80 239 14.0 29.0 0.00 0.00 0.00 43 999.5
20260504180055 79 218 16.0 29.0 0.00 0.00 0.00 41 999.5
20260504175553 79 229 18.0 26.0 0.00 0.00 0.00 42 999.6
20260504175054 79 263 14.0 24.0 0.00 0.00 0.00 42 999.6
20260504174553 79 236 14.0 24.0 0.00 0.00 0.00 41 999.6
20260504174051 79 210 13.0 22.0 0.00 0.00 0.00 43 999.6
20260504173551 79 233 15.0 24.0 0.00 0.00 0.00 42 999.7
20260504173050 78 220 16.0 24.0 0.00 0.00 0.00 44 999.9
20260504172548 78 219 9.0 19.0 0.00 0.00 0.00 46 1000.0
20260504172048 78 225 14.0 22.0 0.00 0.00 0.00 42 1000.2
20260504171547 77 240 15.0 22.0 0.00 0.00 0.00 44 1000.2